Regional Weather Roundup
Issued by NWS

Home | Current Version | Previous Version | Text Only | Print | Product List | Glossary Off
Versions: 1 2 3 4 5 6 7 8 9 10 11 12 13 14 15 16 17 18 19 20 21 22 23 24 25 26 27 28 29 30 31 32 33 34 35 36 37 38 39 40 41 42 43 44 45 46 47 48 49 50

000
ASUS43 KTOP 261559
RWRKS

WEATHER ROUNDUP FOR KANSAS
NATIONAL WEATHER SERVICE GOODLAND KS
1100 AM CDT FRI AUG 26 2016

NOTE:  "FAIR" INDICATES FEW OR NO CLOUDS BELOW 12,000 FEET WITH NO
SIGNIFICANT WEATHER AND/OR OBSTRUCTIONS TO VISIBILITY.

KSZ001>006-013>018-027>032-041>047-261700-
NORTHWEST KANSAS

CITY           SKY/WX    TMP DP  RH WIND       PRES   REMARKS
GOODLAND       MOSUNNY   66  57  72 SE9       30.15F
HAYS           CLOUDY    66  55  68 NE7       30.11S
HILL CITY      CLOUDY    66  60  81 CALM      30.14S
RUSSELL        LGT RAIN  65  63  93 N6        30.09S
$$

KSZ061>065-074>080-084>089-261700-
SOUTHWEST KANSAS

CITY           SKY/WX    TMP DP  RH WIND       PRES   REMARKS
DODGE CITY     CLOUDY    67  64  90 SE7       30.13R
ELKHART          N/A     68  60  75 SE8         N/A
GARDEN CITY    MOSUNNY   68  61  78 E5        30.13S
GREAT BEND     CLOUDY    66  59  77 NW6       30.10S
LIBERAL        CLOUDY    70  63  78 S7        30.15S
$$

KSZ066>073-081>083-090>101-261700-
SOUTHEAST KANSAS

CITY           SKY/WX    TMP DP  RH WIND       PRES   REMARKS
CHANUTE        CLOUDY    80  70  71 E7        30.09F
COFFEYVILLE    MOSUNNY   81  71  71 E7        30.09S
HUTCHINSON     CLOUDY    71  66  84 SE6       30.11R
MEDICINE LODGE   N/A     72  66  81 CALM      30.12R
NEWTON         CLOUDY    72  67  84 SE3       30.12R
PARSONS        SUNNY     82  69  64 VRB3      30.10F
WICHITA INTL   PTSUNNY   74  68  81 S5        30.10R
WICHITA JABRA  CLOUDY    74  69  85 S6        30.10R
WICHITA MCCONL CLOUDY    75  68  78 S8        30.09S
WINFIELD       MOSUNNY   78  68  71 SE12      30.10F
$$

KSZ007>012-019>026-033>040-048>060-102>105-261700-
NORTHEAST KANSAS

CITY           SKY/WX    TMP DP  RH WIND       PRES   REMARKS
CONCORDIA      CLOUDY    65  63  93 E5        30.10F
EMPORIA        PTSUNNY   76  68  76 SE14      30.09S
LAWRENCE       CLOUDY    74  71  91 E8        30.10S
MANHATTAN      CLOUDY    69  67  93 E3        30.10R
OLATHE IND     CLOUDY    73  68  84 E10       30.11F
OLATHE EXE     CLOUDY    73  69  87 E10       30.11F
SALINA         CLOUDY    69  66  90 CALM      30.10R
TOPEKA BILLARD MOSUNNY   75  69  81 E8        30.09S
TOPEKA FORBES  CLOUDY    76  69  79 SE10      30.09S
$$




USA.gov is the U.S. government's official web portal to all federal, state and local government web resources and services.